| time (UTC) | temp F | wind direction | speed MPH | gust MPH | rain 1hr in | rain 24hr in | rain mn in | humidity % | barometer mb |
| 20260903035848 | 62 | 219 | 0.0 | 1.0 | 0.00 | 0.00 | 0.00 | 61 | 1016.0 |
| 20260903035347 | 62 | 231 | 0.0 | 1.0 | 0.00 | 0.00 | 0.00 | 61 | 1015.9 |
| 20260903034840 | 62 | 231 | 0.0 | 1.0 | 0.00 | 0.00 | 0.00 | 61 | 1015.9 |
| 20260903034548 | 62 | 238 | 0.0 | 1.0 | 0.00 | 0.00 | 0.00 | 61 | 1015.7 |
| 20260903034339 | 62 | 239 | 0.0 | 0.0 | 0.00 | 0.00 | 0.00 | 61 | 1015.9 |
| 20260903033849 | 62 | 239 | 0.0 | 0.0 | 0.00 | 0.00 | 0.00 | 62 | 1015.9 |
| 20260903033349 | 63 | 239 | 0.0 | 0.0 | 0.00 | 0.00 | 0.00 | 62 | 1016.1 |
| 20260903033046 | 62 | 239 | 0.0 | 0.0 | 0.00 | 0.00 | 0.00 | 62 | 1015.8 |
| 20260903032844 | 63 | 239 | 0.0 | 0.0 | 0.00 | 0.00 | 0.00 | 62 | 1016.2 |
| 20260903032343 | 63 | 239 | 0.0 | 0.0 | 0.00 | 0.00 | 0.00 | 61 | 1016.2 |
| 20260903031841 | 63 | 239 | 0.0 | 0.0 | 0.00 | 0.00 | 0.00 | 61 | 1016.4 |
| 20260903031557 | 62 | 239 | 0.0 | 0.0 | 0.00 | 0.00 | 0.00 | 61 | 1016.1 |
| 20260903031340 | 63 | 239 | 0.0 | 0.0 | 0.00 | 0.00 | 0.00 | 61 | 1016.5 |
| 20260903030836 | 63 | 239 | 0.0 | 0.0 | 0.00 | 0.00 | 0.00 | 61 | 1016.4 |
| 20260903030336 | 63 | 239 | 0.0 | 0.0 | 0.00 | 0.00 | 0.00 | 61 | 1016.4 |
| 20260903030054 | 62 | 239 | 0.0 | 1.0 | 0.00 | 0.00 | 0.00 | 61 | 1016.2 |
| 20260903025849 | 63 | 239 | 0.0 | 1.0 | 0.00 | 0.00 | 0.00 | 61 | 1016.6 |
| 20260903025346 | 63 | 239 | 0.0 | 1.0 | 0.00 | 0.00 | 0.00 | 61 | 1016.5 |
| 20260903024840 | 63 | 239 | 0.0 | 0.0 | 0.00 | 0.00 | 0.00 | 61 | 1016.5 |
| 20260903024541 | 62 | 239 | 0.0 | 0.0 | 0.00 | 0.00 | 0.00 | 61 | 1016.3 |
| 20260903024340 | 63 | 239 | 0.0 | 0.0 | 0.00 | 0.00 | 0.00 | 61 | 1016.7 |
| 20260903023834 | 63 | 239 | 0.0 | 0.0 | 0.00 | 0.00 | 0.00 | 61 | 1016.6 |
| 20260903023354 | 63 | 239 | 0.0 | 0.0 | 0.00 | 0.00 | 0.00 | 61 | 1016.7 |
| 20260903023051 | 62 | 239 | 0.0 | 0.0 | 0.00 | 0.00 | 0.00 | 61 | 1016.3 |
| 20260903022849 | 63 | 239 | 0.0 | 0.0 | 0.00 | 0.00 | 0.00 | 61 | 1016.7 |
| 20260903022408 | 63 | 239 | 0.0 | 0.0 | 0.00 | 0.00 | 0.00 | 61 | 1016.8 |
| 20260903021845 | 63 | 239 | 0.0 | 0.0 | 0.00 | 0.00 | 0.00 | 61 | 1016.9 |
| 20260903021547 | 62 | 239 | 0.0 | 0.0 | 0.00 | 0.00 | 0.00 | 61 | 1016.7 |
| 20260903021346 | 63 | 239 | 0.0 | 0.0 | 0.00 | 0.00 | 0.00 | 61 | 1017.0 |
| 20260903020844 | 63 | 239 | 0.0 | 0.0 | 0.00 | 0.00 | 0.00 | 61 | 1017.2 |
| 20260903020342 | 63 | 239 | 0.0 | 0.0 | 0.00 | 0.00 | 0.00 | 61 | 1016.9 |
| 20260903020040 | 62 | 239 | 0.0 | 0.0 | 0.00 | 0.00 | 0.00 | 61 | 1016.7 |
| 20260903015838 | 63 | 239 | 0.0 | 0.0 | 0.00 | 0.00 | 0.00 | 61 | 1017.1 |
| 20260903015414 | 63 | 239 | 0.0 | 0.0 | 0.00 | 0.00 | 0.00 | 61 | 1017.1 |
| 20260903014848 | 63 | 239 | 0.0 | 1.0 | 0.00 | 0.00 | 0.00 | 60 | 1017.0 |
| 20260903014553 | 62 | 243 | 0.0 | 1.0 | 0.00 | 0.00 | 0.00 | 60 | 1016.8 |
| 20260903014344 | 63 | 243 | 0.0 | 1.0 | 0.00 | 0.00 | 0.00 | 61 | 1017.1 |
| 20260903013841 | 63 | 243 | 0.0 | 0.0 | 0.00 | 0.00 | 0.00 | 61 | 1017.3 |
| 20260903013342 | 63 | 243 | 0.0 | 0.0 | 0.00 | 0.00 | 0.00 | 61 | 1017.4 |
| 20260903013040 | 62 | 243 | 0.0 | 0.0 | 0.00 | 0.00 | 0.00 | 60 | 1017.0 |
| 20260903012838 | 63 | 243 | 0.0 | 0.0 | 0.00 | 0.00 | 0.00 | 60 | 1017.3 |
| 20260903012348 | 62 | 243 | 0.0 | 1.0 | 0.00 | 0.00 | 0.00 | 60 | 1017.2 |
| 20260903011841 | 62 | 243 | 0.0 | 1.0 | 0.00 | 0.00 | 0.00 | 60 | 1017.2 |
| 20260903011541 | 62 | 129 | 0.0 | 0.0 | 0.00 | 0.00 | 0.00 | 60 | 1016.9 |
| 20260903011340 | 62 | 128 | 0.0 | 0.0 | 0.00 | 0.00 | 0.00 | 60 | 1017.1 |
| 20260903010850 | 63 | 128 | 0.0 | 0.0 | 0.00 | 0.00 | 0.00 | 60 | 1016.6 |
| 20260903010410 | 63 | 128 | 0.0 | 0.0 | 0.00 | 0.00 | 0.00 | 59 | 1016.5 |
| 20260903010008 | 62 | 128 | 0.0 | 0.0 | 0.00 | 0.00 | 0.00 | 60 | 1016.5 |
| 20260903005905 | 63 | 128 | 0.0 | 0.0 | 0.00 | 0.00 | 0.00 | 60 | 1016.7 |
| 20260903005343 | 63 | 128 | 0.0 | 0.0 | 0.00 | 0.00 | 0.00 | 60 | 1016.7 |
| 20260903004838 | 63 | 128 | 0.0 | 0.0 | 0.00 | 0.00 | 0.00 | 60 | 1016.6 |
| 20260903004547 | 63 | 128 | 0.0 | 0.0 | 0.00 | 0.00 | 0.00 | 60 | 1016.3 |
| 20260903004338 | 63 | 128 | 0.0 | 0.0 | 0.00 | 0.00 | 0.00 | 59 | 1016.7 |
| 20260903003915 | 63 | 128 | 0.0 | 0.0 | 0.00 | 0.00 | 0.00 | 59 | 1016.9 |
| 20260903003353 | 64 | 128 | 0.0 | 0.0 | 0.00 | 0.00 | 0.00 | 59 | 1017.0 |
| 20260903003055 | 63 | 128 | 0.0 | 0.0 | 0.00 | 0.00 | 0.00 | 59 | 1016.7 |
| 20260903002847 | 64 | 128 | 0.0 | 0.0 | 0.00 | 0.00 | 0.00 | 59 | 1016.9 |
| 20260903002348 | 64 | 128 | 0.0 | 0.0 | 0.00 | 0.00 | 0.00 | 58 | 1016.9 |
| 20260903001844 | 64 | 129 | 0.0 | 0.0 | 0.00 | 0.00 | 0.00 | 58 | 1017.0 |
| 20260903001544 | 64 | 129 | 0.0 | 0.0 | 0.00 | 0.00 | 0.00 | 58 | 1016.7 |
| 20260903001344 | 64 | 129 | 0.0 | 0.0 | 0.00 | 0.00 | 0.00 | 58 | 1017.1 |
| 20260903000854 | 64 | 129 | 0.0 | 0.0 | 0.00 | 0.00 | 0.00 | 58 | 1017.0 |
| 20260903000355 | 64 | 125 | 0.0 | 0.0 | 0.00 | 0.00 | 0.00 | 58 | 1017.1 |
| 20260903000012 | 64 | 125 | 0.0 | 0.0 | 0.00 | 0.00 | 0.00 | 58 | 1016.8 |
| 20260902235911 | 64 | 125 | 0.0 | 0.0 | 0.00 | 0.00 | 0.00 | 58 | 1017.0 |
| 20260902235348 | 64 | 125 | 0.0 | 0.0 | 0.00 | 0.00 | 0.00 | 57 | 1016.9 |
| 20260902234843 | 65 | 127 | 0.0 | 0.0 | 0.00 | 0.00 | 0.00 | 58 | 1017.1 |
| 20260902234557 | 64 | 271 | 0.0 | 0.0 | 0.00 | 0.00 | 0.00 | 58 | 1016.9 |
| 20260902234345 | 65 | 271 | 0.0 | 0.0 | 0.00 | 0.00 | 0.00 | 58 | 1017.2 |
| 20260902233357 | 65 | 271 | 0.0 | 0.0 | 0.00 | 0.00 | 0.00 | 58 | 1017.5 |
| 20260902233102 | 64 | 271 | 0.0 | 0.0 | 0.00 | 0.00 | 0.00 | 59 | 1017.1 |
| 20260902232854 | 65 | 271 | 0.0 | 0.0 | 0.00 | 0.00 | 0.00 | 59 | 1017.7 |
| 20260902232354 | 65 | 271 | 0.0 | 0.0 | 0.00 | 0.00 | 0.00 | 59 | 1017.7 |
| 20260902231931 | 65 | 271 | 0.0 | 0.0 | 0.00 | 0.00 | 0.00 | 59 | 1017.9 |
| 20260902231546 | 65 | 271 | 0.0 | 0.0 | 0.00 | 0.00 | 0.00 | 59 | 1017.5 |
| 20260902231344 | 65 | 271 | 0.0 | 0.0 | 0.00 | 0.00 | 0.00 | 59 | 1017.8 |
| 20260902230842 | 65 | 271 | 0.0 | 0.0 | 0.00 | 0.00 | 0.00 | 59 | 1017.9 |
| 20260902230341 | 65 | 271 | 0.0 | 0.0 | 0.00 | 0.00 | 0.00 | 58 | 1018.0 |
| 20260902230045 | 65 | 271 | 0.0 | 0.0 | 0.00 | 0.00 | 0.00 | 58 | 1017.6 |
| 20260902225337 | 66 | 271 | 0.0 | 0.0 | 0.00 | 0.00 | 0.00 | 59 | 1018.1 |
| 20260902224835 | 66 | 271 | 0.0 | 0.0 | 0.00 | 0.00 | 0.00 | 59 | 1018.1 |
| 20260902224516 | 66 | 271 | 0.0 | 0.0 | 0.00 | 0.00 | 0.00 | 59 | 1017.8 |
| 20260902224350 | 66 | 271 | 0.0 | 0.0 | 0.00 | 0.00 | 0.00 | 59 | 1018.2 |
| 20260902223850 | 66 | 271 | 0.0 | 0.0 | 0.00 | 0.00 | 0.00 | 59 | 1018.0 |
| 20260902223345 | 67 | 130 | 0.0 | 0.0 | 0.00 | 0.00 | 0.00 | 59 | 1017.9 |
| 20260902223045 | 66 | 130 | 0.0 | 0.0 | 0.00 | 0.00 | 0.00 | 58 | 1017.7 |
| 20260902222411 | 67 | 130 | 0.0 | 0.0 | 0.00 | 0.00 | 0.00 | 59 | 1018.1 |
| 20260902221847 | 67 | 131 | 0.0 | 0.0 | 0.00 | 0.00 | 0.00 | 59 | 1018.2 |
| 20260902221543 | 67 | 131 | 0.0 | 0.0 | 0.00 | 0.00 | 0.00 | 59 | 1018.0 |
| 20260902221341 | 67 | 131 | 0.0 | 0.0 | 0.00 | 0.00 | 0.00 | 59 | 1018.2 |
| 20260902220838 | 67 | 131 | 0.0 | 0.0 | 0.00 | 0.00 | 0.00 | 59 | 1018.2 |
| 20260902220338 | 68 | 130 | 0.0 | 0.0 | 0.00 | 0.00 | 0.00 | 59 | 1018.2 |
| 20260902220059 | 67 | 130 | 0.0 | 0.0 | 0.00 | 0.00 | 0.00 | 59 | 1017.9 |
| 20260902215853 | 68 | 131 | 0.0 | 0.0 | 0.00 | 0.00 | 0.00 | 59 | 1018.2 |
| 20260902215353 | 68 | 131 | 0.0 | 0.0 | 0.00 | 0.00 | 0.00 | 59 | 1018.2 |
| 20260902214849 | 68 | 123 | 0.0 | 0.0 | 0.00 | 0.00 | 0.00 | 59 | 1018.3 |
| 20260902214547 | 68 | 123 | 0.0 | 0.0 | 0.00 | 0.00 | 0.00 | 59 | 1017.8 |
| 20260902214346 | 68 | 122 | 0.0 | 0.0 | 0.00 | 0.00 | 0.00 | 58 | 1018.2 |
| 20260902213843 | 68 | 123 | 0.0 | 0.0 | 0.00 | 0.00 | 0.00 | 59 | 1018.0 |
| 20260902213344 | 68 | 123 | 0.0 | 0.0 | 0.00 | 0.00 | 0.00 | 58 | 1018.0 |
| 20260902213041 | 67 | 113 | 0.0 | 0.0 | 0.00 | 0.00 | 0.00 | 58 | 1017.7 |
| 20260902212840 | 68 | 113 | 0.0 | 0.0 | 0.00 | 0.00 | 0.00 | 58 | 1018.0 |
| 20260902212341 | 68 | 112 | 0.0 | 0.0 | 0.00 | 0.00 | 0.00 | 57 | 1017.8 |
| 20260902211850 | 68 | 124 | 0.0 | 0.0 | 0.00 | 0.00 | 0.00 | 57 | 1018.0 |
| 20260902211551 | 68 | 125 | 0.0 | 0.0 | 0.00 | 0.00 | 0.00 | 56 | 1017.7 |
| 20260902211348 | 68 | 125 | 0.0 | 0.0 | 0.00 | 0.00 | 0.00 | 56 | 1018.1 |
| 20260902210843 | 69 | 125 | 0.0 | 1.0 | 0.00 | 0.00 | 0.00 | 57 | 1017.9 |
| 20260902210342 | 69 | 125 | 0.0 | 1.0 | 0.00 | 0.00 | 0.00 | 56 | 1018.0 |
| 20260902210046 | 69 | 124 | 0.0 | 2.0 | 0.00 | 0.02 | 0.00 | 57 | 1017.6 |
| 20260902205839 | 69 | 121 | 0.0 | 3.0 | 0.00 | 0.02 | 0.00 | 57 | 1017.8 |
| 20260902205338 | 69 | 122 | 1.0 | 3.0 | 0.00 | 0.02 | 0.00 | 56 | 1017.7 |
| 20260902204854 | 69 | 105 | 1.0 | 3.0 | 0.00 | 0.02 | 0.00 | 55 | 1017.8 |
| 20260902204554 | 68 | 113 | 0.0 | 2.0 | 0.00 | 0.02 | 0.00 | 55 | 1017.6 |
| 20260902204354 | 69 | 113 | 0.0 | 3.0 | 0.00 | 0.02 | 0.00 | 54 | 1018.0 |
| 20260902203851 | 69 | 105 | 1.0 | 3.0 | 0.00 | 0.02 | 0.00 | 54 | 1018.1 |
| 20260902203404 | 69 | 124 | 0.0 | 2.0 | 0.00 | 0.02 | 0.00 | 55 | 1018.2 |
| 20260902203057 | 69 | 110 | 0.0 | 2.0 | 0.00 | 0.02 | 0.00 | 55 | 1017.9 |
| 20260902202839 | 70 | 108 | 1.0 | 2.0 | 0.00 | 0.02 | 0.00 | 54 | 1018.2 |
| 20260902202336 | 70 | 105 | 1.0 | 2.0 | 0.00 | 0.02 | 0.00 | 52 | 1018.1 |
| 20260902201851 | 70 | 107 | 1.0 | 3.0 | 0.00 | 0.02 | 0.00 | 53 | 1018.3 |
| 20260902201517 | 70 | 103 | 0.0 | 3.0 | 0.00 | 0.02 | 0.00 | 55 | 1018.1 |
| 20260902201411 | 71 | 103 | 1.0 | 3.0 | 0.00 | 0.02 | 0.00 | 53 | 1018.2 |
| 20260902200905 | 71 | 95 | 1.0 | 2.0 | 0.00 | 0.02 | 0.00 | 55 | 1018.3 |
| 20260902200343 | 71 | 108 | 1.0 | 3.0 | 0.00 | 0.02 | 0.00 | 55 | 1018.3 |
| 20260902200052 | 71 | 96 | 0.0 | 3.0 | 0.00 | 0.04 | 0.00 | 54 | 1018.1 |
| 20260902195841 | 71 | 133 | 1.0 | 3.0 | 0.00 | 0.04 | 0.00 | 54 | 1018.4 |
| 20260902195358 | 71 | 97 | 1.0 | 3.0 | 0.00 | 0.04 | 0.00 | 53 | 1018.4 |
| 20260902194912 | 71 | 113 | 1.0 | 3.0 | 0.00 | 0.04 | 0.00 | 55 | 1018.5 |
| 20260902194549 | 71 | 121 | 1.0 | 3.0 | 0.00 | 0.04 | 0.00 | 54 | 1018.2 |
| 20260902194348 | 71 | 114 | 1.0 | 4.0 | 0.00 | 0.04 | 0.00 | 53 | 1018.5 |
| 20260902193906 | 71 | 124 | 2.0 | 4.0 | 0.00 | 0.04 | 0.00 | 54 | 1018.4 |
| 20260902193406 | 71 | 101 | 0.0 | 2.0 | 0.00 | 0.04 | 0.00 | 54 | 1018.4 |
| 20260902193041 | 71 | 107 | 0.0 | 2.0 | 0.00 | 0.04 | 0.00 | 53 | 1018.2 |
| 20260902192852 | 71 | 111 | 0.0 | 2.0 | 0.00 | 0.04 | 0.00 | 55 | 1018.5 |
| 20260902192346 | 71 | 118 | 0.0 | 2.0 | 0.00 | 0.04 | 0.00 | 55 | 1018.5 |
| 20260902191903 | 70 | 108 | 1.0 | 2.0 | 0.00 | 0.04 | 0.00 | 55 | 1018.5 |
| 20260902191558 | 70 | 131 | 1.0 | 2.0 | 0.00 | 0.04 | 0.00 | 56 | 1018.4 |
| 20260902191356 | 70 | 121 | 0.0 | 2.0 | 0.00 | 0.04 | 0.00 | 56 | 1018.8 |
| 20260902190852 | 70 | 113 | 1.0 | 2.0 | 0.00 | 0.04 | 0.00 | 55 | 1018.9 |
| 20260902190352 | 70 | 104 | 0.0 | 0.0 | 0.00 | 0.04 | 0.00 | 57 | 1018.7 |
| 20260902190050 | 69 | 103 | 0.0 | 0.0 | 0.00 | 0.04 | 0.00 | 56 | 1018.5 |
| 20260902185847 | 70 | 118 | 0.0 | 0.0 | 0.00 | 0.09 | 0.00 | 57 | 1018.8 |
| 20260902185346 | 70 | 125 | 0.0 | 0.0 | 0.00 | 0.09 | 0.00 | 56 | 1018.8 |
| 20260902184843 | 70 | 125 | 0.0 | 0.0 | 0.00 | 0.09 | 0.00 | 58 | 1018.8 |
| 20260902184606 | 69 | 125 | 0.0 | 0.0 | 0.00 | 0.09 | 0.00 | 58 | 1018.6 |
| 20260902184403 | 70 | 125 | 0.0 | 0.0 | 0.00 | 0.09 | 0.00 | 58 | 1018.8 |
| 20260902183840 | 69 | 125 | 0.0 | 2.0 | 0.00 | 0.09 | 0.00 | 58 | 1018.7 |
| 20260902183341 | 70 | 125 | 0.0 | 2.0 | 0.00 | 0.09 | 0.00 | 57 | 1018.6 |
| 20260902183102 | 69 | 129 | 0.0 | 0.0 | 0.00 | 0.09 | 0.00 | 57 | 1018.3 |
| 20260902182850 | 70 | 129 | 0.0 | 0.0 | 0.00 | 0.09 | 0.00 | 56 | 1018.7 |
| 20260902182351 | 70 | 129 | 0.0 | 0.0 | 0.00 | 0.09 | 0.00 | 56 | 1018.7 |
| 20260902181848 | 70 | 129 | 0.0 | 0.0 | 0.00 | 0.09 | 0.00 | 57 | 1018.7 |
| 20260902181549 | 69 | 129 | 0.0 | 1.0 | 0.00 | 0.09 | 0.00 | 56 | 1018.4 |
| 20260902181346 | 70 | 129 | 0.0 | 1.0 | 0.00 | 0.09 | 0.00 | 55 | 1018.7 |
| 20260902180843 | 70 | 130 | 1.0 | 1.0 | 0.00 | 0.09 | 0.00 | 56 | 1018.7 |
| 20260902180342 | 70 | 102 | 0.0 | 1.0 | 0.00 | 0.09 | 0.00 | 58 | 1018.9 |
| 20260902180039 | 69 | 102 | 0.0 | 1.0 | 0.00 | 0.10 | 0.00 | 58 | 1018.6 |
| 20260902175835 | 69 | 102 | 0.0 | 1.0 | 0.00 | 0.10 | 0.00 | 57 | 1018.9 |
| 20260902175336 | 69 | 102 | 0.0 | 1.0 | 0.00 | 0.10 | 0.00 | 57 | 1018.8 |
| 20260902174853 | 69 | 102 | 0.0 | 2.0 | 0.00 | 0.10 | 0.00 | 57 | 1018.9 |
| 20260902174553 | 69 | 102 | 0.0 | 2.0 | 0.00 | 0.10 | 0.00 | 56 | 1018.6 |
| 20260902174349 | 69 | 101 | 0.0 | 2.0 | 0.00 | 0.10 | 0.00 | 56 | 1018.7 |
| 20260902173847 | 70 | 238 | 0.0 | 2.0 | 0.00 | 0.10 | 0.00 | 56 | 1018.8 |
| 20260902173346 | 70 | 117 | 0.0 | 1.0 | 0.00 | 0.10 | 0.00 | 56 | 1018.8 |
| 20260902173040 | 69 | 101 | 0.0 | 2.0 | 0.00 | 0.10 | 0.00 | 57 | 1018.6 |
| 20260902172839 | 69 | 91 | 0.0 | 2.0 | 0.00 | 0.10 | 0.00 | 55 | 1018.8 |
| 20260902172339 | 70 | 98 | 1.0 | 2.0 | 0.00 | 0.10 | 0.00 | 55 | 1018.8 |
| 20260902171835 | 70 | 117 | 0.0 | 1.0 | 0.00 | 0.10 | 0.00 | 55 | 1018.7 |
| 20260902171538 | 69 | 113 | 0.0 | 2.0 | 0.00 | 0.10 | 0.00 | 55 | 1018.3 |
| 20260902171335 | 70 | 113 | 0.0 | 2.0 | 0.00 | 0.10 | 0.00 | 56 | 1018.6 |
| 20260902170852 | 70 | 133 | 1.0 | 2.0 | 0.00 | 0.10 | 0.00 | 56 | 1018.8 |
| 20260902170413 | 69 | 137 | 1.0 | 2.0 | 0.00 | 0.10 | 0.00 | 55 | 1018.9 |
| 20260902170051 | 69 | 118 | 0.0 | 2.0 | 0.00 | 0.10 | 0.00 | 57 | 1018.7 |
| 20260902165850 | 69 | 122 | 0.0 | 2.0 | 0.00 | 0.12 | 0.00 | 58 | 1019.1 |
| 20260902165348 | 69 | 125 | 0.0 | 2.0 | 0.00 | 0.12 | 0.00 | 57 | 1019.2 |
| 20260902164848 | 69 | 115 | 0.0 | 1.0 | 0.00 | 0.12 | 0.00 | 57 | 1019.1 |
| 20260902164546 | 69 | 115 | 0.0 | 1.0 | 0.00 | 0.12 | 0.00 | 57 | 1018.9 |
| 20260902164345 | 70 | 115 | 0.0 | 1.0 | 0.00 | 0.12 | 0.00 | 57 | 1019.2 |
| 20260902163843 | 70 | 114 | 0.0 | 1.0 | 0.00 | 0.12 | 0.00 | 57 | 1019.2 |
| 20260902163340 | 69 | 114 | 0.0 | 1.0 | 0.00 | 0.12 | 0.00 | 58 | 1019.2 |
| 20260902163043 | 69 | 114 | 0.0 | 1.0 | 0.00 | 0.12 | 0.00 | 57 | 1018.9 |
| 20260902162834 | 69 | 115 | 0.0 | 1.0 | 0.00 | 0.12 | 0.00 | 58 | 1019.1 |
| 20260902161842 | 68 | 110 | 0.0 | 1.0 | 0.00 | 0.12 | 0.00 | 58 | 1019.4 |
| 20260902161544 | 68 | 110 | 0.0 | 1.0 | 0.00 | 0.12 | 0.00 | 59 | 1019.2 |
| 20260902161342 | 68 | 110 | 0.0 | 0.0 | 0.00 | 0.12 | 0.00 | 59 | 1019.4 |
| 20260902160838 | 67 | 110 | 0.0 | 1.0 | 0.00 | 0.12 | 0.00 | 59 | 1019.5 |
| 20260902160339 | 67 | 110 | 0.0 | 1.0 | 0.00 | 0.12 | 0.00 | 59 | 1019.5 |
| 20260902160036 | 67 | 110 | 0.0 | 1.0 | 0.00 | 0.12 | 0.00 | 58 | 1019.4 |
| 20260902155835 | 68 | 110 | 0.0 | 1.0 | 0.00 | 0.12 | 0.00 | 58 | 1019.7 |
| 20260902155354 | 68 | 110 | 0.0 | 1.0 | 0.00 | 0.12 | 0.00 | 58 | 1019.8 |
| 20260902154851 | 68 | 117 | 0.0 | 1.0 | 0.00 | 0.12 | 0.00 | 57 | 1019.9 |
| 20260902154553 | 67 | 117 | 0.0 | 1.0 | 0.00 | 0.12 | 0.00 | 60 | 1019.6 |
| 20260902154351 | 67 | 117 | 0.0 | 1.0 | 0.00 | 0.12 | 0.00 | 60 | 1019.9 |
| 20260902153845 | 67 | 117 | 0.0 | 0.0 | 0.00 | 0.12 | 0.00 | 60 | 1019.9 |
| 20260902153344 | 66 | 117 | 0.0 | 1.0 | 0.00 | 0.12 | 0.00 | 60 | 1020.0 |
| 20260902153028 | 66 | 117 | 0.0 | 1.0 | 0.00 | 0.12 | 0.00 | 60 | 1019.7 |
| 20260902152341 | 67 | 117 | 0.0 | 1.0 | 0.00 | 0.12 | 0.00 | 60 | 1020.0 |
| 20260902151838 | 67 | 117 | 0.0 | 1.0 | 0.00 | 0.12 | 0.00 | 60 | 1019.8 |
| 20260902151604 | 66 | 117 | 0.0 | 1.0 | 0.00 | 0.12 | 0.00 | 60 | 1019.6 |
| 20260902151358 | 66 | 117 | 0.0 | 1.0 | 0.00 | 0.12 | 0.00 | 60 | 1020.0 |
| 20260902150833 | 66 | 117 | 0.0 | 1.0 | 0.00 | 0.12 | 0.00 | 61 | 1020.0 |
| 20260902150353 | 66 | 115 | 0.0 | 1.0 | 0.00 | 0.12 | 0.00 | 62 | 1020.0 |
| 20260902150051 | 65 | 115 | 0.0 | 0.0 | 0.00 | 0.12 | 0.00 | 61 | 1019.7 |
| 20260902145850 | 65 | 115 | 0.0 | 1.0 | 0.00 | 0.12 | 0.00 | 61 | 1020.0 |
| 20260902144841 | 65 | 115 | 0.0 | 1.0 | 0.00 | 0.12 | 0.00 | 61 | 1020.2 |
| 20260902144544 | 65 | 115 | 0.0 | 1.0 | 0.00 | 0.12 | 0.00 | 61 | 1019.9 |
| 20260902144341 | 66 | 115 | 0.0 | 1.0 | 0.00 | 0.12 | 0.00 | 61 | 1020.1 |
| 20260902143852 | 66 | 115 | 0.0 | 1.0 | 0.00 | 0.12 | 0.00 | 61 | 1020.2 |
| 20260902143350 | 66 | 115 | 0.0 | 1.0 | 0.00 | 0.12 | 0.00 | 62 | 1020.1 |
| 20260902143049 | 65 | 115 | 0.0 | 2.0 | 0.00 | 0.12 | 0.00 | 62 | 1019.7 |
| 20260902142848 | 65 | 114 | 0.0 | 2.0 | 0.00 | 0.12 | 0.00 | 62 | 1019.9 |
| 20260902142349 | 65 | 108 | 1.0 | 2.0 | 0.00 | 0.12 | 0.00 | 63 | 1019.8 |
| 20260902141845 | 65 | 110 | 0.0 | 1.0 | 0.00 | 0.12 | 0.00 | 63 | 1019.8 |
| 20260902141509 | 64 | 110 | 0.0 | 1.0 | 0.00 | 0.12 | 0.00 | 64 | 1019.5 |
| 20260902141344 | 65 | 110 | 0.0 | 1.0 | 0.00 | 0.12 | 0.00 | 64 | 1019.9 |
| 20260902140840 | 64 | 116 | 0.0 | 0.0 | 0.00 | 0.12 | 0.00 | 64 | 1019.8 |
| 20260902140400 | 64 | 116 | 0.0 | 0.0 | 0.00 | 0.12 | 0.00 | 65 | 1019.7 |
| 20260902140038 | 63 | 116 | 0.0 | 0.0 | 0.00 | 0.13 | 0.00 | 65 | 1019.4 |
| 20260902135834 | 64 | 116 | 0.0 | 0.0 | 0.00 | 0.13 | 0.00 | 65 | 1019.6 |
| 20260902135412 | 64 | 116 | 0.0 | 0.0 | 0.00 | 0.13 | 0.00 | 65 | 1019.5 |
| 20260902134847 | 64 | 116 | 0.0 | 0.0 | 0.00 | 0.13 | 0.00 | 66 | 1019.3 |
| 20260902134551 | 63 | 116 | 0.0 | 0.0 | 0.00 | 0.13 | 0.00 | 66 | 1018.9 |
| 20260902134346 | 64 | 117 | 0.0 | 0.0 | 0.00 | 0.13 | 0.00 | 66 | 1019.2 |
| 20260902133844 | 63 | 116 | 0.0 | 0.0 | 0.00 | 0.13 | 0.00 | 66 | 1019.2 |
| 20260902133344 | 63 | 116 | 0.0 | 0.0 | 0.00 | 0.13 | 0.00 | 66 | 1019.2 |
| 20260902133042 | 62 | 116 | 0.0 | 0.0 | 0.00 | 0.13 | 0.00 | 66 | 1019.0 |
| 20260902132841 | 63 | 116 | 0.0 | 0.0 | 0.00 | 0.13 | 0.00 | 66 | 1019.2 |
| 20260902132341 | 62 | 116 | 0.0 | 0.0 | 0.00 | 0.13 | 0.00 | 66 | 1019.1 |
| 20260902131835 | 62 | 115 | 0.0 | 0.0 | 0.00 | 0.13 | 0.00 | 66 | 1019.2 |
| 20260902131602 | 62 | 115 | 0.0 | 0.0 | 0.00 | 0.13 | 0.00 | 66 | 1019.1 |
| 20260902131354 | 62 | 115 | 0.0 | 0.0 | 0.00 | 0.13 | 0.00 | 66 | 1019.3 |
| 20260902130852 | 62 | 115 | 0.0 | 0.0 | 0.00 | 0.13 | 0.00 | 66 | 1019.1 |
| 20260902130352 | 62 | 120 | 0.0 | 0.0 | 0.00 | 0.13 | 0.00 | 66 | 1019.3 |
| 20260902130049 | 62 | 120 | 0.0 | 0.0 | 0.00 | 0.13 | 0.00 | 66 | 1019.1 |
| 20260902125846 | 62 | 120 | 0.0 | 0.0 | 0.00 | 0.39 | 0.00 | 66 | 1019.5 |
| 20260902125345 | 62 | 120 | 0.0 | 0.0 | 0.00 | 0.39 | 0.00 | 66 | 1019.4 |
| 20260902124842 | 62 | 120 | 0.0 | 1.0 | 0.00 | 0.39 | 0.00 | 66 | 1019.5 |
| 20260902124544 | 61 | 120 | 0.0 | 1.0 | 0.00 | 0.39 | 0.00 | 66 | 1019.2 |
| 20260902124342 | 62 | 120 | 0.0 | 1.0 | 0.00 | 0.39 | 0.00 | 66 | 1019.4 |
| 20260902123839 | 62 | 120 | 0.0 | 0.0 | 0.00 | 0.39 | 0.00 | 66 | 1019.5 |
| 20260902123339 | 61 | 120 | 0.0 | 0.0 | 0.00 | 0.39 | 0.00 | 66 | 1019.4 |
| 20260902123110 | 61 | 120 | 0.0 | 0.0 | 0.00 | 0.39 | 0.00 | 66 | 1019.1 |
| 20260902122852 | 61 | 120 | 0.0 | 0.0 | 0.00 | 0.39 | 0.00 | 66 | 1019.4 |
| 20260902122351 | 62 | 120 | 0.0 | 0.0 | 0.00 | 0.39 | 0.00 | 66 | 1019.6 |
| 20260902121848 | 61 | 120 | 0.0 | 0.0 | 0.00 | 0.39 | 0.00 | 66 | 1019.6 |
| 20260902121557 | 61 | 120 | 0.0 | 0.0 | 0.00 | 0.39 | 0.00 | 66 | 1019.3 |
| 20260902121347 | 61 | 120 | 0.0 | 0.0 | 0.00 | 0.39 | 0.00 | 66 | 1019.5 |
| 20260902120906 | 61 | 120 | 0.0 | 0.0 | 0.00 | 0.39 | 0.00 | 66 | 1019.4 |
| 20260902120342 | 61 | 120 | 0.0 | 0.0 | 0.00 | 0.39 | 0.00 | 66 | 1019.3 |
| 20260902120049 | 60 | 120 | 0.0 | 0.0 | 0.00 | 0.51 | 0.00 | 66 | 1019.1 |
| 20260902115840 | 61 | 120 | 0.0 | 0.0 | 0.00 | 0.51 | 0.00 | 66 | 1019.3 |
| 20260902115339 | 61 | 120 | 0.0 | 0.0 | 0.00 | 0.51 | 0.00 | 66 | 1019.5 |
| 20260902114855 | 61 | 120 | 0.0 | 0.0 | 0.00 | 0.51 | 0.00 | 66 | 1019.6 |
| 20260902114556 | 60 | 120 | 0.0 | 0.0 | 0.00 | 0.51 | 0.00 | 66 | 1019.4 |
| 20260902114354 | 61 | 120 | 0.0 | 0.0 | 0.00 | 0.51 | 0.00 | 66 | 1019.6 |
| 20260902113851 | 61 | 120 | 0.0 | 0.0 | 0.00 | 0.51 | 0.00 | 66 | 1019.6 |
| 20260902113350 | 60 | 120 | 0.0 | 0.0 | 0.00 | 0.51 | 0.00 | 66 | 1019.6 |
| 20260902113048 | 60 | 120 | 0.0 | 0.0 | 0.00 | 0.51 | 0.00 | 66 | 1019.4 |
| 20260902112847 | 61 | 120 | 0.0 | 0.0 | 0.00 | 0.51 | 0.00 | 66 | 1019.6 |
| 20260902112345 | 61 | 120 | 0.0 | 0.0 | 0.00 | 0.51 | 0.00 | 66 | 1019.6 |
| 20260902111843 | 60 | 120 | 0.0 | 0.0 | 0.00 | 0.51 | 0.00 | 66 | 1019.7 |
| 20260902111554 | 60 | 120 | 0.0 | 0.0 | 0.00 | 0.51 | 0.00 | 66 | 1019.4 |
| 20260902111340 | 60 | 120 | 0.0 | 0.0 | 0.00 | 0.51 | 0.00 | 66 | 1019.5 |
| 20260902110340 | 60 | 120 | 0.0 | 0.0 | 0.00 | 0.51 | 0.00 | 66 | 1019.4 |
| 20260902110100 | 60 | 120 | 0.0 | 0.0 | 0.00 | 0.51 | 0.00 | 66 | 1019.1 |
| 20260902105853 | 60 | 120 | 0.0 | 0.0 | 0.00 | 0.51 | 0.00 | 66 | 1019.3 |
| 20260902105350 | 60 | 120 | 0.0 | 0.0 | 0.00 | 0.51 | 0.00 | 66 | 1019.4 |
| 20260902104848 | 60 | 120 | 0.0 | 0.0 | 0.00 | 0.51 | 0.00 | 66 | 1019.4 |
| 20260902104549 | 60 | 120 | 0.0 | 0.0 | 0.00 | 0.51 | 0.00 | 66 | 1019.1 |
| 20260902104347 | 60 | 120 | 0.0 | 0.0 | 0.00 | 0.51 | 0.00 | 66 | 1019.3 |
| 20260902103902 | 60 | 120 | 0.0 | 0.0 | 0.00 | 0.51 | 0.00 | 66 | 1019.1 |
| 20260902103342 | 60 | 120 | 0.0 | 0.0 | 0.00 | 0.51 | 0.00 | 66 | 1018.9 |
| 20260902103035 | 60 | 120 | 0.0 | 0.0 | 0.00 | 0.51 | 0.00 | 66 | 1018.6 |
| 20260902102834 | 61 | 120 | 0.0 | 0.0 | 0.00 | 0.51 | 0.00 | 66 | 1018.9 |
| 20260902102334 | 61 | 120 | 0.0 | 0.0 | 0.00 | 0.51 | 0.00 | 66 | 1018.8 |
| 20260902101848 | 61 | 120 | 0.0 | 0.0 | 0.00 | 0.51 | 0.00 | 66 | 1018.7 |
| 20260902101550 | 60 | 120 | 0.0 | 0.0 | 0.00 | 0.51 | 0.00 | 66 | 1018.5 |
| 20260902101347 | 61 | 120 | 0.0 | 0.0 | 0.00 | 0.51 | 0.00 | 66 | 1018.7 |
| 20260902100336 | 60 | 120 | 0.0 | 0.0 | 0.00 | 0.51 | 0.00 | 66 | 1018.8 |
| 20260902100104 | 60 | 120 | 0.0 | 0.0 | 0.00 | 0.51 | 0.00 | 66 | 1018.5 |
| 20260902095852 | 61 | 120 | 0.0 | 0.0 | 0.00 | 0.51 | 0.00 | 66 | 1018.8 |
| 20260902095411 | 60 | 120 | 0.0 | 0.0 | 0.00 | 0.51 | 0.00 | 66 | 1018.7 |
| 20260902094847 | 60 | 120 | 0.0 | 0.0 | 0.00 | 0.51 | 0.00 | 66 | 1018.7 |
| 20260902094547 | 60 | 120 | 0.0 | 0.0 | 0.00 | 0.51 | 0.00 | 66 | 1018.5 |
| 20260902094346 | 60 | 120 | 0.0 | 0.0 | 0.00 | 0.51 | 0.00 | 66 | 1018.6 |
| 20260902093842 | 60 | 120 | 0.0 | 0.0 | 0.00 | 0.51 | 0.00 | 66 | 1018.6 |
| 20260902093342 | 61 | 120 | 0.0 | 0.0 | 0.00 | 0.51 | 0.00 | 66 | 1018.6 |
| 20260902093036 | 60 | 120 | 0.0 | 0.0 | 0.00 | 0.51 | 0.00 | 66 | 1018.2 |
| 20260902092835 | 61 | 120 | 0.0 | 0.0 | 0.00 | 0.51 | 0.00 | 66 | 1018.5 |
| 20260902092351 | 61 | 120 | 0.0 | 0.0 | 0.00 | 0.51 | 0.00 | 66 | 1018.5 |
| 20260902091848 | 60 | 120 | 0.0 | 0.0 | 0.00 | 0.51 | 0.00 | 66 | 1018.4 |
| 20260902091552 | 60 | 120 | 0.0 | 0.0 | 0.00 | 0.51 | 0.00 | 66 | 1018.1 |
| 20260902091346 | 60 | 120 | 0.0 | 0.0 | 0.00 | 0.51 | 0.00 | 66 | 1018.3 |
| 20260902090843 | 60 | 120 | 0.0 | 0.0 | 0.00 | 0.51 | 0.00 | 66 | 1018.4 |
| 20260902090341 | 60 | 120 | 0.0 | 0.0 | 0.00 | 0.51 | 0.00 | 66 | 1018.3 |
| 20260902090040 | 60 | 120 | 0.0 | 0.0 | 0.00 | 0.51 | 0.00 | 66 | 1018.1 |
| 20260902085838 | 60 | 120 | 0.0 | 0.0 | 0.00 | 0.51 | 0.00 | 66 | 1018.4 |
| 20260902085439 | 60 | 120 | 0.0 | 0.0 | 0.00 | 0.51 | 0.00 | 66 | 1018.5 |
| 20260902084852 | 60 | 120 | 0.0 | 0.0 | 0.00 | 0.51 | 0.00 | 66 | 1018.3 |
| 20260902084552 | 60 | 120 | 0.0 | 0.0 | 0.00 | 0.51 | 0.00 | 66 | 1018.1 |
| 20260902084351 | 60 | 120 | 0.0 | 0.0 | 0.00 | 0.51 | 0.00 | 66 | 1018.3 |
| 20260902083849 | 60 | 120 | 0.0 | 0.0 | 0.00 | 0.51 | 0.00 | 66 | 1018.3 |
| 20260902083403 | 60 | 120 | 0.0 | 0.0 | 0.00 | 0.51 | 0.00 | 66 | 1018.3 |
| 20260902083040 | 60 | 120 | 0.0 | 0.0 | 0.00 | 0.51 | 0.00 | 66 | 1018.1 |
| 20260902082839 | 60 | 120 | 0.0 | 0.0 | 0.00 | 0.51 | 0.00 | 66 | 1018.2 |
| 20260902082339 | 60 | 120 | 0.0 | 0.0 | 0.00 | 0.51 | 0.00 | 66 | 1018.1 |
| 20260902081835 | 60 | 120 | 0.0 | 0.0 | 0.00 | 0.51 | 0.00 | 66 | 1018.1 |
| 20260902081537 | 60 | 120 | 0.0 | 0.0 | 0.00 | 0.51 | 0.00 | 66 | 1017.9 |
| 20260902081334 | 60 | 120 | 0.0 | 0.0 | 0.00 | 0.51 | 0.00 | 66 | 1018.2 |
| 20260902080851 | 60 | 120 | 0.0 | 0.0 | 0.00 | 0.51 | 0.00 | 66 | 1018.3 |
| 20260902080350 | 60 | 120 | 0.0 | 0.0 | 0.00 | 0.51 | 0.00 | 66 | 1018.4 |
| 20260902080053 | 60 | 120 | 0.0 | 0.0 | 0.00 | 0.51 | 0.00 | 66 | 1018.2 |
| 20260902075848 | 60 | 120 | 0.0 | 0.0 | 0.00 | 0.51 | 0.00 | 66 | 1018.4 |
| 20260902075348 | 61 | 120 | 0.0 | 0.0 | 0.00 | 0.51 | 0.00 | 66 | 1018.3 |
| 20260902074845 | 61 | 120 | 0.0 | 0.0 | 0.00 | 0.51 | 0.00 | 66 | 1018.5 |
| 20260902074550 | 60 | 120 | 0.0 | 0.0 | 0.00 | 0.51 | 0.00 | 66 | 1018.2 |
| 20260902074345 | 61 | 120 | 0.0 | 0.0 | 0.00 | 0.51 | 0.00 | 66 | 1018.6 |
| 20260902073837 | 61 | 120 | 0.0 | 0.0 | 0.00 | 0.51 | 0.00 | 66 | 1018.5 |
| 20260902073338 | 61 | 120 | 0.0 | 0.0 | 0.00 | 0.51 | 0.00 | 66 | 1018.5 |
| 20260902073036 | 60 | 120 | 0.0 | 0.0 | 0.00 | 0.51 | 0.00 | 66 | 1018.3 |
| 20260902072835 | 61 | 120 | 0.0 | 0.0 | 0.00 | 0.51 | 0.00 | 66 | 1018.6 |
| 20260902072415 | 61 | 120 | 0.0 | 0.0 | 0.00 | 0.51 | 0.00 | 66 | 1018.8 |
| 20260902071911 | 61 | 120 | 0.0 | 0.0 | 0.00 | 0.51 | 0.00 | 66 | 1018.7 |
| 20260902071551 | 60 | 120 | 0.0 | 0.0 | 0.00 | 0.51 | 0.00 | 66 | 1018.4 |
| 20260902071350 | 61 | 120 | 0.0 | 0.0 | 0.00 | 0.51 | 0.00 | 66 | 1018.6 |
| 20260902070847 | 61 | 120 | 0.0 | 0.0 | 0.00 | 0.51 | 0.00 | 66 | 1018.6 |
| 20260902070345 | 61 | 120 | 0.0 | 0.0 | 0.00 | 0.51 | 0.00 | 66 | 1018.5 |
| 20260902070045 | 60 | 120 | 0.0 | 0.0 | 0.00 | 0.51 | 0.00 | 66 | 1018.0 |
| 20260902065843 | 61 | 120 | 0.0 | 0.0 | 0.00 | 0.51 | 0.00 | 66 | 1018.3 |
| 20260902065341 | 61 | 120 | 0.0 | 0.0 | 0.00 | 0.51 | 0.00 | 66 | 1018.2 |
| 20260902064914 | 61 | 120 | 0.0 | 0.0 | 0.00 | 0.51 | 0.00 | 66 | 1018.2 |
| 20260902064548 | 60 | 120 | 0.0 | 0.0 | 0.00 | 0.51 | 0.00 | 66 | 1017.9 |
| 20260902064343 | 61 | 120 | 0.0 | 0.0 | 0.00 | 0.51 | 0.00 | 66 | 1018.2 |
| 20260902063841 | 61 | 120 | 0.0 | 0.0 | 0.00 | 0.51 | 0.00 | 66 | 1018.2 |
| 20260902063342 | 61 | 120 | 0.0 | 0.0 | 0.00 | 0.51 | 0.00 | 66 | 1018.2 |
| 20260902063054 | 60 | 120 | 0.0 | 0.0 | 0.00 | 0.51 | 0.00 | 66 | 1017.9 |
| 20260902062840 | 61 | 120 | 0.0 | 0.0 | 0.00 | 0.51 | 0.00 | 66 | 1018.3 |
| 20260902062340 | 60 | 120 | 0.0 | 0.0 | 0.00 | 0.51 | 0.00 | 66 | 1018.2 |
| 20260902061537 | 60 | 120 | 0.0 | 0.0 | 0.00 | 0.51 | 0.00 | 66 | 1018.0 |
| 20260902060854 | 61 | 120 | 0.0 | 0.0 | 0.00 | 0.51 | 0.00 | 66 | 1018.3 |
| 20260902060348 | 61 | 120 | 0.0 | 0.0 | 0.00 | 0.51 | 0.00 | 66 | 1018.2 |
| 20260902060005 | 60 | 120 | 0.0 | 0.0 | 0.00 | 0.51 | 0.00 | 66 | 1018.0 |
| 20260902055839 | 61 | 120 | 0.0 | 0.0 | 0.00 | 0.51 | 0.00 | 66 | 1018.2 |
| 20260902055348 | 61 | 120 | 0.0 | 0.0 | 0.00 | 0.51 | 0.00 | 66 | 1018.1 |
| 20260902054845 | 61 | 120 | 0.0 | 0.0 | 0.00 | 0.51 | 0.00 | 66 | 1018.1 |
| 20260902054548 | 60 | 120 | 0.0 | 0.0 | 0.00 | 0.51 | 0.00 | 66 | 1017.8 |
| 20260902054344 | 60 | 120 | 0.0 | 0.0 | 0.00 | 0.51 | 0.00 | 66 | 1018.1 |
| 20260902053837 | 61 | 120 | 0.0 | 0.0 | 0.00 | 0.51 | 0.00 | 66 | 1018.2 |
| 20260902053335 | 61 | 120 | 0.0 | 0.0 | 0.00 | 0.51 | 0.00 | 66 | 1018.1 |
| 20260902053054 | 60 | 120 | 0.0 | 0.0 | 0.00 | 0.51 | 0.00 | 66 | 1017.9 |
| 20260902052852 | 61 | 120 | 0.0 | 0.0 | 0.00 | 0.51 | 0.00 | 66 | 1018.1 |
| 20260902052351 | 61 | 120 | 0.0 | 0.0 | 0.00 | 0.51 | 0.00 | 66 | 1018.1 |
| 20260902051845 | 61 | 120 | 0.0 | 0.0 | 0.00 | 0.51 | 0.00 | 66 | 1018.1 |
| 20260902051547 | 60 | 120 | 0.0 | 0.0 | 0.00 | 0.51 | 0.00 | 66 | 1017.8 |
| 20260902051344 | 60 | 120 | 0.0 | 0.0 | 0.00 | 0.51 | 0.00 | 66 | 1018.0 |
| 20260902050838 | 61 | 120 | 0.0 | 0.0 | 0.00 | 0.51 | 0.00 | 66 | 1017.9 |
| 20260902050339 | 61 | 120 | 0.0 | 0.0 | 0.00 | 0.51 | 0.00 | 66 | 1017.9 |
| 20260902045855 | 61 | 120 | 0.0 | 0.0 | 0.00 | 0.51 | 0.00 | 66 | 1017.7 |
| 20260902045353 | 60 | 120 | 0.0 | 0.0 | 0.00 | 0.51 | 0.00 | 66 | 1017.8 |
| 20260902044908 | 60 | 120 | 0.0 | 0.0 | 0.00 | 0.51 | 0.00 | 66 | 1017.6 |
| 20260902044547 | 60 | 120 | 0.0 | 0.0 | 0.00 | 0.51 | 0.00 | 66 | 1017.3 |
| 20260902044347 | 60 | 120 | 0.0 | 0.0 | 0.00 | 0.51 | 0.00 | 66 | 1017.4 |
| 20260902043841 | 60 | 120 | 0.0 | 0.0 | 0.00 | 0.51 | 0.00 | 66 | 1017.4 |
| 20260902043342 | 60 | 120 | 0.0 | 0.0 | 0.00 | 0.51 | 0.00 | 66 | 1017.3 |
| 20260902043047 | 60 | 120 | 0.0 | 0.0 | 0.00 | 0.51 | 0.00 | 66 | 1017.0 |
| 20260902042840 | 60 | 120 | 0.0 | 0.0 | 0.00 | 0.51 | 0.00 | 66 | 1017.4 |
| 20260902042337 | 60 | 120 | 0.0 | 0.0 | 0.00 | 0.51 | 0.00 | 66 | 1017.4 |
| 20260902041854 | 60 | 120 | 0.0 | 0.0 | 0.00 | 0.51 | 0.00 | 66 | 1017.3 |
| 20260902041557 | 60 | 120 | 0.0 | 0.0 | 0.00 | 0.51 | 0.00 | 66 | 1017.0 |
| 20260902041354 | 60 | 120 | 0.0 | 0.0 | 0.00 | 0.51 | 0.00 | 66 | 1017.2 |
| 20260902040908 | 60 | 120 | 0.0 | 0.0 | 0.00 | 0.51 | 0.00 | 66 | 1017.2 |
| 20260902040406 | 60 | 120 | 0.0 | 0.0 | 0.00 | 0.51 | 0.00 | 66 | 1017.2 |
| 20260902040044 | 60 | 120 | 0.0 | 0.0 | 0.00 | 0.51 | 0.51 | 66 | 1016.9 |